| time (UTC) | temp F | wind direction | speed MPH | gust MPH | rain 1hr in | rain 24hr in | rain mn in | humidity % | barometer mb |
| 20260506061538 | 42 | 308 | 0.0 | 0.0 | 0.00 | 0.37 | 0.37 | 89 | 1018.1 |
| 20260506044542 | 44 | 306 | 0.0 | 5.0 | 0.00 | 0.38 | 0.37 | 89 | 1017.7 |
| 20260506043031 | 44 | 303 | 0.0 | 5.0 | 0.00 | 0.38 | 0.37 | 89 | 1017.5 |
| 20260506041529 | 44 | 302 | 0.0 | 2.0 | 0.00 | 0.38 | 0.37 | 89 | 1017.2 |
| 20260506040049 | 44 | 302 | 0.0 | 0.0 | 0.00 | 0.38 | 0.37 | 88 | 1017.0 |
| 20260506034527 | 44 | 302 | 0.0 | 0.0 | 0.00 | 0.38 | 0.37 | 88 | 1017.0 |
| 20260506033026 | 44 | 304 | 0.0 | 0.0 | 0.00 | 0.38 | 0.37 | 87 | 1016.7 |
| 20260506031539 | 45 | 306 | 0.0 | 0.0 | 0.00 | 0.38 | 0.37 | 86 | 1016.4 |
| 20260506030022 | 45 | 307 | 0.0 | 0.0 | 0.00 | 0.38 | 0.37 | 85 | 1016.2 |
| 20260506024522 | 45 | 304 | 0.0 | 4.0 | 0.00 | 0.38 | 0.37 | 85 | 1016.1 |
| 20260506023021 | 45 | 302 | 0.0 | 0.0 | 0.00 | 0.38 | 0.37 | 84 | 1015.8 |
| 20260506021519 | 45 | 315 | 0.0 | 0.0 | 0.00 | 0.38 | 0.37 | 83 | 1015.7 |
| 20260506020019 | 46 | 309 | 0.0 | 0.0 | 0.00 | 0.38 | 0.37 | 82 | 1015.6 |
| 20260506014518 | 46 | 312 | 0.0 | 0.0 | 0.00 | 0.38 | 0.37 | 81 | 1015.6 |
| 20260506013017 | 46 | 306 | 0.0 | 10.0 | 0.00 | 0.38 | 0.37 | 80 | 1015.2 |
| 20260506011516 | 47 | 305 | 0.0 | 6.0 | 0.00 | 0.38 | 0.37 | 80 | 1015.2 |
| 20260506010016 | 47 | 316 | 0.0 | 4.0 | 0.00 | 0.38 | 0.37 | 80 | 1014.9 |
| 20260506004523 | 47 | 346 | 0.0 | 8.0 | 0.00 | 0.38 | 0.37 | 77 | 1014.8 |
| 20260506003015 | 48 | 259 | 0.0 | 4.0 | 0.00 | 0.38 | 0.37 | 79 | 1014.8 |
| 20260506001514 | 48 | 311 | 0.0 | 4.0 | 0.00 | 0.38 | 0.37 | 78 | 1014.6 |
| 20260506000011 | 48 | 306 | 0.0 | 11.0 | 0.00 | 0.38 | 0.37 | 75 | 1014.6 |
| 20260505234510 | 49 | 252 | 0.0 | 10.0 | 0.00 | 0.38 | 0.37 | 75 | 1014.6 |
| 20260505233008 | 49 | 281 | 0.0 | 10.0 | 0.00 | 0.38 | 0.37 | 79 | 1014.4 |
| 20260505231506 | 49 | 285 | 0.0 | 8.0 | 0.00 | 0.38 | 0.37 | 82 | 1014.6 |
| 20260505230004 | 48 | 253 | 0.0 | 7.0 | 0.00 | 0.38 | 0.37 | 84 | 1014.7 |
| 20260505224503 | 48 | 322 | 0.0 | 2.0 | 0.00 | 0.38 | 0.37 | 84 | 1014.8 |
| 20260505223002 | 49 | 254 | 0.0 | 11.0 | 0.00 | 0.38 | 0.37 | 87 | 1014.8 |
| 20260505221557 | 49 | 242 | 0.0 | 13.0 | 0.00 | 0.38 | 0.37 | 89 | 1014.8 |
| 20260505220053 | 49 | 336 | 3.0 | 10.0 | 0.00 | 0.38 | 0.37 | 93 | 1014.9 |
| 20260505214554 | 48 | 253 | 3.0 | 12.0 | 0.00 | 0.38 | 0.37 | 95 | 1015.1 |
| 20260505213047 | 47 | 315 | 4.0 | 15.0 | 0.00 | 0.38 | 0.37 | 95 | 1015.1 |
| 20260505211546 | 47 | 265 | 0.0 | 10.0 | 0.00 | 0.38 | 0.37 | 95 | 1015.2 |
| 20260505210044 | 47 | 295 | 4.0 | 12.0 | 0.00 | 0.38 | 0.37 | 96 | 1015.3 |
| 20260505204546 | 45 | 294 | 1.0 | 7.0 | 0.00 | 0.38 | 0.37 | 95 | 1015.2 |
| 20260505203042 | 46 | 264 | 0.0 | 11.0 | 0.00 | 0.38 | 0.37 | 96 | 1015.2 |
| 20260505201539 | 45 | 292 | 1.0 | 9.0 | 0.00 | 0.38 | 0.37 | 95 | 1015.3 |
| 20260505200044 | 45 | 305 | 0.0 | 10.0 | 0.00 | 0.38 | 0.37 | 95 | 1015.2 |
| 20260505194539 | 45 | 321 | 0.0 | 9.0 | 0.00 | 0.38 | 0.37 | 95 | 1015.2 |
| 20260505193037 | 44 | 296 | 2.0 | 10.0 | 0.00 | 0.38 | 0.37 | 95 | 1015.3 |
| 20260505191537 | 44 | 290 | 1.0 | 9.0 | 0.00 | 0.38 | 0.37 | 95 | 1015.5 |
| 20260505190039 | 43 | 302 | 1.0 | 10.0 | 0.00 | 0.38 | 0.37 | 95 | 1015.5 |
| 20260505184534 | 45 | 323 | 2.0 | 13.0 | 0.00 | 0.38 | 0.37 | 95 | 1015.2 |
| 20260505183038 | 45 | 310 | 2.0 | 12.0 | 0.01 | 0.38 | 0.37 | 95 | 1015.2 |
| 20260505181531 | 45 | 297 | 0.0 | 10.0 | 0.02 | 0.38 | 0.37 | 95 | 1015.2 |
| 20260505180032 | 44 | 302 | 1.0 | 14.0 | 0.02 | 0.38 | 0.37 | 95 | 1015.0 |
| 20260505174538 | 44 | 284 | 0.0 | 6.0 | 0.03 | 0.38 | 0.37 | 95 | 1014.9 |
| 20260505173028 | 44 | 291 | 1.0 | 7.0 | 0.02 | 0.37 | 0.36 | 95 | 1014.8 |
| 20260505171527 | 44 | 299 | 2.0 | 9.0 | 0.01 | 0.36 | 0.35 | 95 | 1014.7 |
| 20260505170025 | 44 | 317 | 1.0 | 10.0 | 0.01 | 0.36 | 0.35 | 95 | 1014.4 |
| 20260505164522 | 43 | 278 | 0.0 | 9.0 | 0.02 | 0.35 | 0.34 | 95 | 1014.4 |
| 20260505163020 | 43 | 238 | 1.0 | 6.0 | 0.04 | 0.35 | 0.34 | 95 | 1014.3 |
| 20260505161519 | 44 | 311 | 1.0 | 7.0 | 0.04 | 0.35 | 0.34 | 94 | 1014.1 |
| 20260505153018 | 43 | 311 | 2.0 | 9.0 | 0.00 | 0.31 | 0.30 | 94 | 1014.0 |
| 20260505151517 | 43 | 348 | 0.0 | 5.0 | 0.01 | 0.31 | 0.30 | 95 | 1013.9 |
| 20260505124502 | 44 | 280 | 2.0 | 7.0 | 0.07 | 0.21 | 0.20 | 94 | 1012.6 |
| 20260505123000 | 44 | 277 | 1.0 | 11.0 | 0.04 | 0.18 | 0.17 | 94 | 1012.4 |
| 20260505121600 | 44 | 323 | 2.0 | 13.0 | 0.03 | 0.16 | 0.15 | 93 | 1012.4 |
| 20260505120121 | 44 | 288 | 0.0 | 5.0 | 0.04 | 0.16 | 0.15 | 94 | 1012.3 |
| 20260505114601 | 44 | 288 | 1.0 | 6.0 | 0.03 | 0.14 | 0.13 | 93 | 1012.4 |
| 20260505113104 | 44 | 248 | 0.0 | 6.0 | 0.03 | 0.14 | 0.13 | 93 | 1012.6 |
| 20260505111546 | 44 | 202 | 1.0 | 14.0 | 0.03 | 0.13 | 0.12 | 93 | 1012.5 |
| 20260505101539 | 43 | 224 | 0.0 | 3.0 | 0.07 | 0.10 | 0.09 | 93 | 1012.8 |
| 20260505100036 | 42 | 315 | 0.0 | 4.0 | 0.06 | 0.08 | 0.07 | 92 | 1012.9 |
| 20260505094536 | 42 | 317 | 0.0 | 4.0 | 0.05 | 0.06 | 0.05 | 92 | 1013.0 |
| 20260505093033 | 42 | 229 | 0.0 | 1.0 | 0.03 | 0.04 | 0.03 | 92 | 1013.1 |
| 20260505091532 | 42 | 228 | 0.0 | 0.0 | 0.02 | 0.03 | 0.02 | 92 | 1013.1 |
| 20260505090036 | 42 | 227 | 0.0 | 3.0 | 0.01 | 0.02 | 0.01 | 91 | 1013.2 |
| 20260505084529 | 42 | 240 | 0.0 | 2.0 | 0.00 | 0.01 | 0.00 | 91 | 1013.2 |
| 20260505083027 | 43 | 261 | 0.0 | 3.0 | 0.00 | 0.01 | 0.00 | 92 | 1013.3 |
| 20260505081539 | 43 | 309 | 0.0 | 0.0 | 0.00 | 0.01 | 0.00 | 92 | 1013.7 |
| 20260505080024 | 43 | 309 | 0.0 | 1.0 | 0.00 | 0.01 | 0.00 | 92 | 1014.0 |
| 20260505074524 | 43 | 309 | 0.0 | 0.0 | 0.00 | 0.01 | 0.00 | 92 | 1014.0 |
| 20260505073027 | 43 | 310 | 0.0 | 6.0 | 0.00 | 0.01 | 0.00 | 91 | 1014.0 |
| 20260505071540 | 43 | 300 | 0.0 | 4.0 | 0.00 | 0.01 | 0.00 | 91 | 1014.1 |
| 20260505070019 | 43 | 315 | 0.0 | 3.0 | 0.00 | 0.01 | 0.00 | 91 | 1014.1 |
| 20260505064523 | 43 | 260 | 0.0 | 3.0 | 0.01 | 0.01 | 0.01 | 91 | 1014.1 |